STARLINK-1713 (46360 NORAD) Tracking and Keplerian Element Data

This shows tracking and keplerian element data for the satellite.

Feedback or suggestion? Click here.




ElementValue
Catalog46360
NameSTARLINK-1713
Epoch Orbit186
Epoch Day336.91667824
Epoch Year2020
RAAN350.7596
Inclination52.9984
Eccentricity0.0002459
Argument of Perigee20.892
Mean Anonmoly302.1956
Mean Motion15.62747672
Decay Rate5.577E-05
L11 46360U 20062AM 20336.91667824 .00005577 00000-0 66717-4 0 9991
L22 46360 52.9984 350.7596 0002459 20.8920 302.1956 15.62747672 1862

Live tracking and technical data element details for STARLINK-1713 (NORAD 46360). STARLINK-1713 can be tracked NOW for your location showing map with azimuth and elevation plus other details from your city location.

Track the satellite on the map from your city or location and see movement details for azimuth, elevation, latitude, longitude, range, height, and movement on the map or in text.







IsCatalogInMostPopularTable: catalog: 46360, numindb: 31
Update: records affected: 1



GetName: 46360 STARLINK-1713

Hit Count: updated at: Thu, 03 Dec 2020 06:56:28 GMT